Location: *
(49.6647°N, 4.1078°E)
Time: 15:12:41
(UTC+00:00)

Daily predictions for brighter satellites

Satellite Brightness Start Highest point End
(mag) Time Altitude Azimuth Time Altitude Azimuth Time Altitude Azimuth
Cosmos 2221 2.8 16:26:29 10° SSW 16:30:49 73° WNW 16:35:12 10° N
Cosmos 1666 Rocket 3.9 16:27:04 10° N 16:31:13 40° ENE 16:35:19 10° SE
Radarsat Rocket 4.4 16:25:34 10° SSE 16:32:38 83° WSW 16:38:55 10° NNW
Helios 1A Rocket 3.6 16:28:54 10° S 16:33:01 62° WSW 16:37:09 10° NNW
Cosmos 1371 Rocket 4.4 16:28:29 10° NNW 16:33:23 40° ENE 16:38:15 10° SE
Okean O Rocket 2.2 16:31:22 10° S 16:35:43 62° WSW 16:40:03 10° NNW
COSMO-SKYMED 1 4.4 16:34:58 10° ENE 16:37:02 13° E 16:39:05 10° ESE
APEX 4.4 16:38:43 10° SSE 16:40:53 17° ESE 16:42:41 11° ENE
Cosmos 1633 2.5 16:43:44 10° N 16:47:23 63° ENE 16:50:58 10° SSE
CZ-4B R/B 3.5 16:45:31 10° N 16:48:30 28° WNW 16:51:31 10° SW
Cosmos 1891 Rocket 4.5 16:44:39 10° N 16:50:59 66° ENE 16:57:07 10° SSE
CORIOLIS 4.2 16:46:29 10° SSE 16:51:49 63° ENE 16:57:12 10° N
Cosmos 1464 Rocket 3.9 16:46:04 10° N 16:52:12 66° ENE 16:58:17 10° SSE
Cosmos 1356 Rocket 3.4 16:48:37 10° S 16:52:50 83° E 16:57:09 10° NNE
Cosmos 1680 Rocket 3.8 16:49:41 10° S 16:54:42 49° ESE 16:59:46 10° NNE
Cosmos 1606 4.4 16:54:54 10° ESE 16:56:50 14° E 16:56:57 14° E
Cosmos 2369 Rocket 4.5 16:55:54 10° NW 16:57:48 12° NNW 16:59:41 10° N
NOAA 12 4.2 16:53:27 10° SE 16:58:37 54° ENE 17:03:49 10° N
YAOGAN 1 3.7 16:59:09 10° ESE 17:02:32 23° ENE 17:05:56 10° N
Cosmos 1470 Rocket 4.0 16:58:28 10° N 17:02:44 41° ENE 17:06:57 10° SE
ALOS 4.3 16:59:39 10° SSW 17:03:48 31° W 17:07:59 10° NNW
PSLV R/B 4.0 16:59:53 10° NNE 17:04:08 85° WNW 17:08:20 10° SSW
CZ-4 R/B 2.3 17:00:45 10° ESE 17:04:11 26° ENE 17:07:34 10° N
Cosmos 1072 Rocket 4.5 16:58:07 10° N 17:04:18 86° E 17:10:31 10° S
SMAP 3.1 17:02:22 10° SSE 17:07:02 86° WSW 17:11:44 10° NNW
AQUARIUS 4.1 17:02:44 10° SSE 17:07:14 87° ENE 17:11:46 10° NNW
Cosmos 1980 Rocket 2.5 17:03:37 10° S 17:08:59 46° ESE 17:14:10 11° NE
USA 215 3.7 17:04:32 14° ENE 17:09:54 47° N 17:16:05 10° WNW
Cosmos 1862 3.3 17:06:49 10° N 17:10:49 89° W 17:14:50 10° S
ERBS 3.0 17:08:04 10° W 17:11:18 45° NNW 17:13:28 18° NE
SL-16 R/B 3.6 17:08:02 10° SE 17:11:22 16° E 17:12:08 16° E
Cosmos 2297 Rocket 4.4 17:09:11 10° NW 17:14:00 29° WSW 17:18:47 10° SSW
Cosmos 2227 Rocket 4.3 17:10:07 10° NW 17:15:01 31° WSW 17:19:55 10° SSW
Cosmos 1933 4.3 17:11:51 10° SSE 17:15:16 27° E 17:17:21 18° NE
Lacrosse 4 Rocket 1.8 17:12:11 10° SW 17:16:12 60° NW 17:19:57 12° NNE
Cosmos 2322 Rocket 3.7 17:14:04 10° SE 17:17:03 15° E 17:17:03 15° E
NOSS 2-3 (E) 3.7 17:16:19 10° SW 17:20:45 82° SE 17:24:53 16° NE
Cosmos 923 Rocket 4.1 17:16:39 10° SSW 17:21:52 81° WNW 17:27:07 10° NNE
SeaSat 1 2.5 17:17:36 10° SE 17:22:25 56° NE 17:27:16 10° NNW
Cosmos 1624 Rocket 4.0 17:17:57 10° NNW 17:23:21 83° ENE 17:28:41 10° SSE
USA 229 DEB 4.2 17:18:00 10° WSW 17:24:31 56° NW 17:30:48 13° NE
USA 229 4.2 17:18:05 10° WSW 17:24:37 57° NW 17:30:53 13° NE
Cosmos 2056 Rocket 3.4 17:19:39 10° NNW 17:24:50 82° ENE 17:30:02 10° SSE
SKYMED 2 4.1 17:22:17 14° NNE 17:25:39 36° E 17:29:39 10° SSE
BREEZE-M DEB (TANK) 2.7 17:17:46 10° W 17:26:13 88° SSE 17:27:57 27° E
NOSS 3-1 (C) 4.0 17:20:58 10° WSW 17:26:36 55° NW 17:32:29 13° NE
Cosmos 2263 Rocket 2.3 17:22:16 10° NNW 17:27:44 53° NE 17:33:11 10° SE
NOSS 3-1 (A) 3.6 17:23:53 10° SW 17:29:33 72° NW 17:35:10 15° NE
NOSS 2-3 (D) 3.7 17:26:05 10° SW 17:30:32 90° NE 17:34:17 19° NE
YAOGAN 6 2.5 17:31:12 10° SSE 17:34:36 54° ENE 17:38:02 10° N
H-2A R/B 3.8 17:31:05 10° S 17:34:46 47° W 17:38:27 10° NNW
Timation 1 Rocket 4.3 17:34:29 10° NNW 17:40:27 63° NE 17:46:23 10° SE
H-2A R/B 4.1 17:43:10 11° NNE 17:43:10 11° NNE 17:43:42 10° NNE
Cosmos 2369 4.2 17:39:29 10° SW 17:45:06 59° NW 17:50:39 11° NNE
Cosmos 1697 Rocket 3.1 17:40:16 10° SW 17:45:51 61° WNW 17:51:13 11° NNE
CENTAUR R/B 3.6 17:40:47 10° NW 17:47:46 39° NNE 17:51:27 27° ENE
COBE Rocket 4.0 17:43:24 10° N 17:48:09 72° WNW 17:52:47 10° SSW
Envisat 3.2 17:44:21 10° S 17:49:25 74° WSW 17:54:31 10° NNW
Cosmos 1400 Rocket 4.2 17:47:25 10° SSE 17:49:31 24° SE 17:49:31 24° SE
Cosmos 1151 Rocket 3.2 17:47:13 10° SSW 17:51:35 76° W 17:56:01 10° N
Cosmos 2034 Rocket 4.5 17:46:53 10° NNW 17:53:11 65° W 17:59:28 10° S
Meteor 1-14 Rocket 4.5 17:47:44 10° N 17:53:35 50° ENE 17:59:21 10° SSE
Okean-O 3.6 17:50:49 10° S 17:55:07 48° W 17:59:26 10° NNW
Gblst 52 Del rocket 4.4 17:48:48 10° WNW 17:55:49 85° NNE 17:58:48 33° E
Cosmos 158 Rocket 3.9 17:53:09 10° SSW 17:58:26 89° WNW 18:02:06 20° NNE
Cosmos 2278 4.2 17:56:41 10° SW 18:02:17 58° WNW 18:07:05 15° NNE
GENESIS II 4.2 17:58:51 10° SSW 18:02:52 67° SE 18:03:14 62° E
Cosmos 1420 Rocket 3.8 17:58:42 10° NNW 18:03:56 84° ENE 18:09:07 10° SSE
FengYun 1-2 T 4.4 18:00:15 10° S 18:05:44 72° WSW 18:11:15 10° NNW
Cosmos 1328 Rocket 4.5 18:03:27 10° SSW 18:07:43 49° WNW 18:12:00 10° N
NOSS 2-3 (C) 4.5 18:04:00 10° WSW 18:08:27 52° NW 18:11:05 27° NNE
Cosmos 1634 Rocket 3.8 18:02:23 10° N 18:08:36 79° E 18:14:46 10° SSE
Cosmos 1844 Rocket 3.6 18:04:04 10° NNW 18:08:24 30° NE 18:08:24 30° NE
Cosmos 1933 Rocket 4.0 18:05:52 10° NNW 18:10:10 60° W 18:14:27 10° S
ATLAS 3B R/B 3.3 18:05:42 10° NW 18:11:46 35° NNE 18:12:57 33° NE
Geosat 3.9 18:10:04 35° NE 18:12:16 83° ESE 18:17:18 10° SSW
ATLAS 2AS CENTAUR R/B 4.4 18:06:56 10° SSE 18:09:49 18° SE 18:09:49 18° SE
Cosmos 1452 Rocket 3.4 18:07:53 10° NNW 18:13:13 81° ENE 18:16:36 23° SSE
COSMO-SKYMED 1 2.6 18:10:49 20° N 18:13:46 78° WNW 18:18:06 10° SSW
Cosmos 2228 Rocket 3.0 18:09:42 10° S 18:14:11 83° E 18:16:06 35° NNE
Cosmos 1515 Rocket 3.9 18:10:10 10° SSW 18:14:31 65° WNW 18:18:15 14° N
USA 238 DEB 3.8 18:08:35 10° NW 18:15:42 67° NE 18:18:44 38° ESE
Cosmos 44 3.5 18:11:32 10° NNW 18:15:05 44° NNE 18:15:05 44° NNE
USA 238 3.8 18:08:41 10° NW 18:15:48 67° NE 18:18:47 38° ESE
USA 116 4.2 18:14:05 30° NNE 18:16:32 76° ESE 18:21:46 10° S
ISS -0.9 18:15:51 10° S 18:16:02 11° S 18:16:02 11° S
NOSS 3-2 (A) 3.9 18:11:13 10° NW 18:18:28 65° NE 18:21:46 38° ESE
Cosmos 2278 Rocket 4.1 18:15:34 10° N 18:17:39 14° NNE 18:17:39 14° NNE
Cosmos 2142 Rocket 4.4 18:13:20 10° N 18:19:47 75° E 18:26:06 10° SSE
COSMOS 2455 3.7 18:15:42 10° S 18:19:46 32° SE 18:19:46 32° SE
APEX 4.5 18:19:34 10° WSW 18:22:08 28° WNW 18:22:08 28° WNW
CSL-04 Debris 4.4 18:18:05 10° S 18:23:35 72° WSW 18:29:05 10° NNW
Cosmos 2279 Rocket 3.9 18:18:10 10° N 18:24:23 66° ENE 18:30:34 10° SSE
Tsikada Rocket 4.4 18:19:22 10° SSW 18:25:43 66° WNW 18:32:09 10° N
NOAA 11 4.0 18:20:21 10° SSE 18:25:47 86° ENE 18:31:16 10° NNW
Cosmos 1606 3.3 18:28:25 10° SSW 18:32:01 53° W 18:32:01 53° W
Ariane Rocket 3.0 18:32:52 65° NNE 18:32:52 65° NNE 18:37:25 10° N
SL-8 R/B 4.0 18:27:43 10° WSW 18:32:05 53° S 18:32:05 53° S
CSL-04 Rocket 4.1 18:27:49 10° S 18:33:05 61° WSW 18:38:20 10° NNW
YAOGAN 1 3.5 18:34:13 10° S 18:38:23 46° W 18:42:35 10° NNW
CZ-4 R/B 3.0 18:35:22 10° SSW 18:39:06 34° W 18:42:48 10° NNW
Cosmos 1939 Rocket 4.5 18:42:28 29° NNW 18:42:28 29° NNW 18:44:33 10° NNW
Meteor 1-26 Rocket 4.3 18:34:52 10° SSW 18:40:51 82° WNW 18:45:50 15° N
GEOS 3 Rocket 3.7 18:41:59 63° NNE 18:42:46 75° NW 18:48:01 10° SW
Cosmos 2360 Rocket 4.4 18:41:59 10° S 18:42:21 12° S 18:42:21 12° S
USA 215 3.2 18:51:53 63° NE 18:52:25 65° NNE 18:58:54 10° WNW
Cosmos 1980 Rocket 3.4 18:47:50 10° WSW 18:53:07 38° NW 18:55:57 23° N
SL-16 R/B 2.2 18:48:58 10° SSW 18:54:04 73° SSW 18:54:04 73° SSW
Lacrosse 4 Rocket 4.0 18:53:44 10° WNW 18:55:44 13° NNW 18:56:17 13° NNW
Cosmos 2180 Rocket 4.3 18:51:06 10° N 18:57:19 89° E 18:57:38 81° SSE
SeaSat 1 4.4 18:56:04 10° SSW 19:00:12 27° WSW 19:04:22 10° NW
Cosmos 2322 Rocket 2.6 18:54:45 10° SSW 18:58:55 52° SSW 18:58:55 52° SSW
NOSS 3-2 (C) 3.8 18:58:21 10° NW 19:05:43 78° NE 19:06:16 74° E
Cosmos 2263 Rocket 3.9 19:06:39 10° NW 19:11:23 29° WSW 19:16:06 10° SSW
H-2A R/B 4.3 19:23:47 16° N 19:23:47 16° N 19:24:44 10° NNW
CENTAUR R/B 3.1 19:31:34 10° NW 19:38:39 75° NNW 19:38:39 75° NNW
ATLAS 2AS CENTAUR R/B 4.5 19:54:31 10° SSW 19:57:20 25° SSW 19:57:20 25° SSW
ATLAS 3B R/B 3.8 19:56:26 10° NW 20:00:12 37° NW 20:00:12 37° NW
